Flag for U.S.A. Weather past 2 weeks in Menominee, Michigan, U.S.A.

Now
66 °F

Thundershowers. Passing clouds.


Feels Like: 66 °F
Forecast: 64 / 72 °F
Wind: 6 mph from Southeast

Location: Menominee Weather Reporting Station

Current Time: Sep 2, 2015 at 10:03:08 PM

Latest Report: Sep 2, 2015 at 9:35 PM


Visibility: 10 mi

Pressure: 29.92 "Hg

Humidity: 83%

Dew point: 61 °F

Location of MenomineeLocation

Historic Weather in Menominee — Graph

°F

Menominee temperature yesterday

Maximum temperature yesterday: 86 °F (at 2:55 PM)
Minimum temperature yesterday: 64 °F (at 3:15 AM)
Average temperature yesterday: 74 °F

Past Weeks' High & Low Weather Summary

 TemperatureHumidityPressure
High86 °F (Sep 1, 2:55 PM)94% (Aug 30, 1:55 AM)30.18 "Hg (Aug 30, 1:55 AM)
Low46 °F (Aug 27, 5:55 AM)47% (Aug 21, 12:15 PM)29.52 "Hg (Aug 19, 11:55 AM)
Average64 °F74%29.93 "Hg
* Reported Aug 18 8:15 PM — Sep 2 8:55 PM, Menominee, Weather by CustomWeather, © 2015

Note: Actual official high and low records may vary slightly from our data, if they occured in-between our weather recording intervals... More about our weather records

Advertising

Menominee weather history for previous 24 hours

 ConditionsComfort  
Time TempWeatherWind HumidityBarometerVisibility
8:55 PM
Wed, Sep 2
64 °FPassing clouds.9 mph88%29.92 "Hg10 mi
8:15 PM66 °FPassing clouds.6 mph88%29.92 "Hg10 mi
7:55 PM66 °FPassing clouds.7 mph88%29.92 "Hg10 mi
7:35 PM66 °FPassing clouds.8 mph88%29.92 "Hg10 mi
7:15 PM68 °FSunny.8 mph83%29.91 "Hg10 mi
6:55 PM68 °FSunny.7 mph83%29.91 "Hg10 mi
6:35 PM68 °FSunny.5 mph83%29.91 "Hg10 mi
6:15 PM66 °FPassing clouds.3 mph88%29.93 "Hg10 mi
5:55 PM66 °FPassing clouds.6 mph88%29.93 "Hg10 mi
4:35 PM66 °FThunderstorms. More clouds than sun.7 mph88%29.95 "Hg8 mi
3:55 PM70 °FThunderstorms. Mostly cloudy.8 mph78%29.97 "Hg6 mi
3:35 PM73 °FThunderstorms. Overcast.13 mph74%29.93 "Hg10 mi
3:15 PM73 °FPartly sunny.7 mph74%29.94 "Hg10 mi
2:55 PM75 °FPassing clouds.12 mph69%29.94 "Hg10 mi
2:35 PM79 °FSunny.12 mph65%29.94 "Hg10 mi
2:15 PM77 °FPassing clouds.8 mph65%29.96 "Hg10 mi
1:55 PM72 °FPartly sunny.10 mph73%29.97 "Hg10 mi
1:35 PM73 °FCloudy.12 mph74%29.97 "Hg9 mi
1:15 PM75 °FOvercast.13 mph74%29.96 "Hg7 mi
12:55 PM77 °FBroken clouds.10 mph69%29.97 "Hg7 mi
12:35 PM79 °FBroken clouds.7 mph74%29.96 "Hg8 mi
12:15 PM79 °FBroken clouds.8 mph74%29.96 "Hg9 mi
11:55 AM81 °FBroken clouds.8 mph70%29.96 "Hg8 mi
11:35 AM81 °FBroken clouds.7 mph70%29.95 "Hg8 mi
11:15 AM81 °FPartly sunny.7 mph70%29.95 "Hg5 mi
10:55 AM82 °FSunny.3 mph70%29.96 "Hg8 mi
10:35 AM82 °FSunny.No wind70%29.96 "Hg7 mi
10:15 AM81 °FSunny.No wind70%29.96 "Hg9 mi
9:55 AM79 °FSunny.3 mph74%29.96 "Hg8 mi
9:35 AM77 °FSunny.3 mph79%29.96 "Hg9 mi
9:15 AM75 °FSunny.3 mph83%29.96 "Hg8 mi
8:55 AM75 °FSunny.6 mph78%29.96 "Hg7 mi
8:35 AM73 °FScattered clouds.No wind83%29.96 "Hg6 mi
8:15 AM73 °FScattered clouds.No wind89%29.97 "Hg6 mi
7:55 AM72 °FSunny.No wind88%29.97 "Hg5 mi
7:35 AM72 °FSunny.No wind83%29.97 "Hg3 mi
7:15 AM68 °FDense fog.No wind88%29.97 "Hg0 mi
6:55 AM68 °FDense fog.No wind88%29.96 "Hg0 mi
6:35 AM70 °FDense fog.No wind83%29.96 "Hg0 mi
6:15 AM70 °FSunny.No wind88%29.96 "Hg2 mi
5:55 AM70 °FClear.No wind88%29.95 "Hg2 mi
5:35 AM70 °FClear.No wind83%29.94 "Hg1 mi
5:15 AM70 °FDense fog.No wind88%29.93 "Hg1 mi
4:55 AM70 °FClear.No wind88%29.93 "Hg3 mi
4:35 AM70 °FClear.No wind88%29.93 "Hg2 mi
4:15 AM70 °FClear.No wind88%29.93 "Hg1 mi
3:55 AM70 °FClear.No wind88%29.93 "Hg1 mi
3:35 AM72 °FClear.No wind83%29.93 "Hg5 mi
3:15 AM72 °FClear.No wind83%29.93 "Hg7 mi
2:55 AM72 °FClear.3 mph88%29.93 "Hg8 mi
2:35 AM72 °FClear.5 mph83%29.94 "Hg8 mi
2:15 AM72 °FClear.5 mph83%29.93 "Hg8 mi
1:55 AM72 °FClear.5 mph83%29.94 "Hg8 mi
1:35 AM72 °FClear.3 mph83%29.94 "Hg7 mi
1:15 AM72 °FPassing clouds.No wind83%29.94 "Hg8 mi
12:55 AM73 °FPassing clouds.No wind78%29.95 "Hg10 mi
12:35 AM73 °FPartly cloudy.No wind78%29.95 "Hg10 mi
12:15 AM73 °FPassing clouds.3 mph78%29.95 "Hg10 mi
11:55 PM
Tue, Sep 1
73 °FPartly cloudy.3 mph78%29.95 "Hg10 mi
11:35 PM73 °FPassing clouds.5 mph78%29.95 "Hg10 mi
11:15 PM73 °FPassing clouds.5 mph78%29.95 "Hg10 mi
10:55 PM73 °FClear.5 mph78%29.95 "Hg10 mi
10:15 PM73 °FPassing clouds.5 mph78%29.94 "Hg10 mi
Weather by CustomWeather, © 2015

See weather overviewHow to use our weather pages